Location: Sternwarte Stuttgart
(48.7670°N, 9.1830°E)
Time: 21:37:04
(UTC+01:00)

Cosmos 389 Rocket - Pass Details

Date: 24 January 2019
Orbit: 445 x 480 km, 81.1° (Epoch: 19 February)

Event Time Altitude Azimuth Distance (km) Brightness Sun altitude
Exits shadow 06:01:57 - 359° (N) 2,164 5.8 -19.8°
Reaches altitude 10° 06:03:19 10° 7° (N) 1,639 5.2 -19.6°
Maximum altitude 06:06:33 31° 71° (ENE) 838 4.3 -19.0°
Drops below altitude 10° 06:09:43 10° 136° (SE) 1,607 5.9 -18.5°
Sets 06:11:56 0° 147° (SSE) 2,469 6.8 -18.1°
